Location: Taipo
(41.0000°S, 175.9500°E)
Time: 13:44:27
(UTC+00:00)

SL-4 R/B - Visible Passes

Search period start: 12 July 2024 00:00
Search period end: 22 July 2024 00:00
Orbit: 411 x 598 km, 51.6° (Epoch: 11 July)

Date Brightness Start Highest point End Pass type
(mag) Time Alt. Az. Time Alt. Az. Time Alt. Az.
12 Jul 4.4 07:41:49 10° NNW 07:42:59 18° NNW 07:42:59 18° NNW visible
13 Jul 3.4 07:21:41 10° NNW 07:24:16 32° N 07:24:16 32° N visible
14 Jul 2.4 07:01:32 10° NNW 07:05:27 49° NE 07:05:27 49° NE visible
15 Jul 2.4 06:41:22 10° NNW 06:45:27 51° NE 06:46:33 40° E visible
15 Jul 5.0 08:20:20 10° W 08:21:17 16° W 08:21:17 16° W visible
16 Jul 2.3 06:21:11 10° NW 06:25:15 54° NE 06:27:32 25° ESE visible
16 Jul 4.3 08:00:11 10° W 08:02:16 24° WSW 08:02:16 24° WSW visible
17 Jul 2.3 06:00:58 10° NW 06:05:01 56° NE 06:08:26 16° ESE visible
17 Jul 3.6 07:40:02 10° W 07:43:10 32° SW 07:43:10 32° SW visible
18 Jul 2.3 05:40:45 10° NW 05:44:47 58° NE 05:49:05 10° ESE visible
18 Jul 3.3 07:19:51 10° W 07:23:47 34° SSW 07:23:58 33° SSW visible
19 Jul 3.4 06:59:39 10° W 07:03:32 33° SSW 07:04:42 28° S visible
20 Jul 3.4 06:39:26 10° W 06:43:16 32° SSW 06:45:22 21° SSE visible
20 Jul 5.1 08:19:44 10° SW 08:20:05 11° SW 08:20:05 11° SW visible
21 Jul 3.4 06:19:12 10° W 06:22:59 31° SSW 06:25:59 15° SE visible
21 Jul 4.7 07:59:28 10° SW 08:00:42 15° SW 08:00:42 15° SW visible
